Find Starlink 32124

NORAD ID: 60298 Int'l Des: 2024-132 Owner: SPXS Country: US Constellation: starlink operational
LEOCIRCULAR

Current View

Loading 3D Globe...

About Starlink 32124

Starlink 32124 (NORAD 60298) is a starlink constellation satellite (v2 mini) launched Jul 28, 2024 by SPXS of US. It operates in LEO, CIRCULAR orbit with a mass of 730.00 kg.

Upcoming Passes

Passes for default location (London). Set your location on the main map for personalized predictions.

Altitude History

Loading altitude history...

Two-Line Element Set

1 60298U 24132W 26237.71000564 .00002504 00000-0 92461-4 0 9997
2 60298 53.1611 346.2545 0001568 70.8943 289.2228 15.31687763117452
Epoch: Aug 25, 2026 • Age: 16 hours

Current Status

Altitude 476.3 km
Apogee / Perigee N/A
Velocity 7.63 km/s
Sub-Earth Point 53.18°N, 32.47°W
Launch Date Jul 28, 2024
Age 2 years
Type internet

Technical Details

Classification Payload
Mass 730.00 kg
Dry Mass 700.00 kg
Total Mass 730.00 kg
Length 0.30 m
Diameter 4.10 m
Span 29.00 m
Shape Box + pan
Manufacturer SPXS
Bus Type Starlink V2M
Phase Status In Orbit
Owner/State SPXS/US

Most Searched